Location: Newark
(13.8117°N, 3.6025°W)
Time: 20:00:16
(UTC+00:00)

Vanguard 2 - Pass Details

Date: 29 August 2019
Orbit: 554 x 2937 km, 32.9° (Epoch: 15 October)

Event Time Altitude Azimuth Distance (km) Brightness Sun altitude
Rises 17:48:48 0° 296° (WNW) 4,633 13.2 8.6°
Reaches altitude 10° 17:51:25 10° 293° (WNW) 3,918 13.1 8.0°
Maximum altitude 18:02:26 67° 213° (SSW) 2,451 10.3 5.3°
Drops below altitude 10° 18:19:12 10° 135° (SE) 5,692 11.5 1.3°
Sets 18:23:57 0° 132° (SE) 6,780 11.8 0.1°
